TimePDT,TemperatureF,Dew PointF,Humidity,Sea Level PressureIn,VisibilityMPH,Wind Direction,Wind SpeedMPH,Gust SpeedMPH,PrecipitationIn,Events,Conditions,WindDirDegrees,DateUTC
12:52 AM,64.9,17.1,16,29.93,10.0,NW,3.5,-,N/A,,Clear,320,2013-10-22 07:52:00
1:52 AM,61.0,17.1,18,29.93,10.0,NNW,4.6,-,N/A,,Clear,330,2013-10-22 08:52:00
2:52 AM,59.0,18.0,20,29.93,10.0,Calm,Calm,-,N/A,,Clear,0,2013-10-22 09:52:00
3:52 AM,55.9,16.0,21,29.93,10.0,North,4.6,-,N/A,,Clear,10,2013-10-22 10:52:00
4:52 AM,54.0,15.1,22,29.94,10.0,NW,3.5,-,N/A,,Clear,320,2013-10-22 11:52:00
5:52 AM,54.0,16.0,22,29.95,10.0,Calm,Calm,-,N/A,,Clear,0,2013-10-22 12:52:00
6:52 AM,57.0,18.0,22,29.96,10.0,Calm,Calm,-,N/A,,Clear,0,2013-10-22 13:52:00
7:52 AM,61.0,19.9,21,29.98,10.0,Calm,Calm,-,N/A,,Clear,0,2013-10-22 14:52:00
8:52 AM,69.1,21.0,16,29.99,10.0,Calm,Calm,-,N/A,,Clear,0,2013-10-22 15:52:00
9:52 AM,72.0,21.9,15,29.99,10.0,Calm,Calm,-,N/A,,Clear,0,2013-10-22 16:52:00
10:52 AM,77.0,24.1,14,29.98,10.0,Calm,Calm,-,N/A,,Clear,0,2013-10-22 17:52:00
11:52 AM,84.0,27.0,13,29.96,10.0,Variable,3.5,-,N/A,,Clear,0,2013-10-22 18:52:00
12:52 PM,87.1,24.1,10,29.93,10.0,NNE,3.5,-,N/A,,Clear,30,2013-10-22 19:52:00
1:52 PM,88.0,23.0,9,29.90,10.0,Calm,Calm,-,N/A,,Clear,0,2013-10-22 20:52:00
2:52 PM,91.0,21.0,8,29.88,10.0,NE,3.5,-,N/A,,Clear,40,2013-10-22 21:52:00
3:52 PM,91.0,19.9,7,29.87,10.0,Calm,Calm,-,N/A,,Clear,0,2013-10-22 22:52:00
4:52 PM,91.0,21.0,8,29.85,10.0,NNE,6.9,-,N/A,,Clear,20,2013-10-22 23:52:00
5:52 PM,87.1,21.9,9,29.84,10.0,North,3.5,-,N/A,,Clear,360,2013-10-23 00:52:00
6:52 PM,80.1,19.9,11,29.85,10.0,NNW,4.6,-,N/A,,Clear,330,2013-10-23 01:52:00
7:52 PM,75.0,19.0,12,29.85,10.0,NNE,5.8,-,N/A,,Clear,20,2013-10-23 02:52:00
8:52 PM,72.0,19.9,14,29.86,10.0,North,4.6,-,N/A,,Clear,350,2013-10-23 03:52:00
9:52 PM,71.1,18.0,13,29.86,10.0,North,3.5,-,N/A,,Clear,350,2013-10-23 04:52:00
10:52 PM,66.9,19.0,16,29.86,10.0,North,5.8,-,N/A,,Clear,360,2013-10-23 05:52:00
11:52 PM,66.0,19.0,17,29.85,10.0,North,5.8,-,N/A,,Clear,10,2013-10-23 06:52:00